Showing default

GAMA-ALPHA, 55084

Orbit data source: Space-Track

GAMA-ALPHA, 55084 is a Lithuanian payload satellite in SSO that was launched on Tue, 03 Jan 2023 UTC via an FALCON 9 launch vehicle from the Air Force Eastern Test Range (AFETR). Payload-class satellites include a variety of spacecraft equipped with specific instruments for various scientific and technological missions. These include communications satellites like Starlink; space stations such as the ISS; scientific satellites like the Hubble; Earth observation satellites from companies like Planet Labs, Umbra, and HawkEye 360; GPS; miniature CubeSats for education and research; and military/defense satellites.

Loading next visibility...
Identifier
55084, 2023-001CD
Orbit
SSO
Country
Flag of LTLT / LTU
Related business
Manufacturer
NanoAvionics
Mission
Operational Commercial Technology
Bus & Motor
CUBESAT 6U, Unknown motor
Mass
~10 kg wet, ~10 kg dry
Launch date (UTC)
2023-01-03 (3 years ago)
Launch vehicle
FALCON 9
Launch site
Air Force Eastern Test Range (AFETR)
Object type
Payload
Rocket body
Debris
Shape & HBR
Box + 1 Sail, 4.3 m
Radar Cross Section
0.080 m², Small (<0.1 m²)

Expand to show TLE details & history
Last TLE update: 1 day ago

TLE from 1 day ago
0 GAMA-ALPHA
1 55084U 23001CD  25286.14277040  .00106547  00000-0  10961-2 0  9998
2 55084  97.3569 358.7313 0005690 211.1780 148.9142 15.64510537155101
Epoch: 2025-10-13T03:25Z
TLE epoch observation values (Epoch: 2025-10-13T03:25:35.362Z)
Latitude
-0.00008°
Longitude
-74.61582°
Altitude
381.091 km
Speed
7.679 km/s
True Right ascension
23h 54m 55s
True Declination
0° 00' 00"
Sunlit
Object was in full shadow at epoch
Visualization orbit readout
Latitude
Unknown
Longitude
Unknown
Altitude
Unknown
Speed
Unknown
Apparent Right ascension
Unknown
Apparent Declination
Unknown
Sunlit
N/A
Visualization observer readout
Local Sidereal Time
02:24:45
Azimuth
Unknown
Elevation
Unknown
Doppler factor
Unknown
Orbital elements
Apogee altitude
375.392 km
Perigee altitude
367.711 km
Semi-major axis
6,749.688 km
Eccentricity
0.00057
Inclination
97.3569°
RAAN
358.7313°
Arg. of periapsis
211.178°
True anomaly
148.94784°
Mean anomaly
148.9142°
Eccentric anomaly
148.93102°
Mean motion
3.91397 °/min
Orbital period
91.98 mins
BSTAR
0.0010961
Loading maneuver chart data...
Computing Atmospheric mass density...
Loading historical data...
Loading historical data...
Loading historical data...
Loading historical data...
Loading historical data...
Loading historical data...
Loading historical data...

Documentation

Showing up to 5 results
|